AFR38AZ LFMN-LFPG

Flight info

Callsign AFR38AZ
Flight time N/A
Altitude 31000
Route OKTET UM733 GIPNO UT26 LOGNI DCT MOKIP DCT ARFOZ UN854 TINIL
Aircraft A320/M-SDE2E3FGIJ1RWY/HB1

Departure

Time 2026-05-08 08:48
Airport Nice-Côte d'Azur Airport (LFMN)

Arrival

Time N/A
Airport Charles de Gaulle International Airport (LFPG)
Time Latitude Longitude Altitude Speed Heading
2026-05-08 08:15 43.66077 7.20693 26 ft 0 kts 297°
2026-05-08 08:38 43.66069 7.20715 27 ft 3 kts 297°
2026-05-08 08:38 43.66060 7.20738 29 ft 3 kts 297°
2026-05-08 08:39 43.66051 7.20761 28 ft 3 kts 297°
2026-05-08 08:39 43.66046 7.20775 29 ft 0 kts 285°
2026-05-08 08:39 43.66045 7.20797 28 ft 3 kts 227°
2026-05-08 08:39 43.66057 7.20807 30 ft 0 kts 169°
2026-05-08 08:42 43.66048 7.20809 29 ft 5 kts 169°
2026-05-08 08:43 43.65995 7.20822 27 ft 10 kts 170°
2026-05-08 08:43 43.65909 7.20811 26 ft 15 kts 199°
2026-05-08 08:43 43.65819 7.20715 27 ft 18 kts 225°
2026-05-08 08:43 43.65721 7.20581 25 ft 21 kts 225°
2026-05-08 08:44 43.65609 7.20427 25 ft 24 kts 224°
2026-05-08 08:44 43.65485 7.20255 25 ft 26 kts 225°
2026-05-08 08:44 43.65340 7.20213 27 ft 24 kts 141°
2026-05-08 08:44 43.65240 7.20347 25 ft 20 kts 134°
2026-05-08 08:45 43.65129 7.20480 25 ft 22 kts 158°
2026-05-08 08:45 43.65006 7.20381 25 ft 23 kts 225°
2026-05-08 08:45 43.64888 7.20219 25 ft 25 kts 225°
2026-05-08 08:45 43.64768 7.20149 26 ft 13 kts 144°
2026-05-08 08:46 43.64707 7.20241 26 ft 15 kts 108°
2026-05-08 08:46 43.64759 7.20368 25 ft 10 kts 46°
2026-05-08 08:46 43.64762 7.20372 25 ft 0 kts 45°
2026-05-08 08:47 43.64870 7.20522 27 ft 55 kts 45°
2026-05-08 08:47 43.65298 7.21108 26 ft 116 kts 44°
2026-05-08 08:47 43.66002 7.22073 28 ft 166 kts 44°
2026-05-08 08:47 43.66853 7.23265 366 ft 172 kts 44°
2026-05-08 08:48 43.67559 7.24485 1084 ft 161 kts 63°
2026-05-08 08:48 43.67608 7.25974 1630 ft 161 kts 115°
2026-05-08 08:48 43.66791 7.26942 2114 ft 157 kts 149°
2026-05-08 08:48 43.65832 7.27812 2460 ft 178 kts 146°
2026-05-08 08:49 43.64709 7.28886 2775 ft 211 kts 144°
2026-05-08 08:49 43.63477 7.30107 3466 ft 222 kts 143°
2026-05-08 08:49 43.62217 7.31362 4363 ft 225 kts 145°
2026-05-08 08:49 43.60757 7.32088 5229 ft 233 kts 178°
2026-05-08 08:50 43.59189 7.31469 6104 ft 239 kts 207°
2026-05-08 08:50 43.57774 7.30238 6983 ft 241 kts 212°
2026-05-08 08:50 43.56388 7.28901 7780 ft 245 kts 218°
2026-05-08 08:50 43.55260 7.27120 8537 ft 251 kts 242°
2026-05-08 08:51 43.54875 7.24776 9315 ft 256 kts 275°
2026-05-08 08:51 43.55434 7.22496 10074 ft 257 kts 303°
2026-05-08 08:51 43.56491 7.20489 10847 ft 258 kts 309°
2026-05-08 08:51 43.57629 7.18552 11606 ft 260 kts 309°
2026-05-08 08:52 43.58761 7.16631 12427 ft 260 kts 308°
2026-05-08 08:52 43.59891 7.14685 13309 ft 259 kts 308°
2026-05-08 08:52 43.61079 7.12787 14050 ft 263 kts 314°
2026-05-08 08:52 43.62481 7.11043 14447 ft 281 kts 318°
2026-05-08 08:53 43.64046 7.09253 14746 ft 302 kts 319°
2026-05-08 08:53 43.65724 7.07359 15055 ft 321 kts 319°
2026-05-08 08:53 43.67503 7.05344 15372 ft 340 kts 319°
2026-05-08 08:53 43.69350 7.03245 15794 ft 354 kts 319°
2026-05-08 08:54 43.71271 7.01057 16447 ft 360 kts 319°
2026-05-08 08:54 43.73215 6.98839 17176 ft 365 kts 319°
2026-05-08 08:54 43.75180 6.96591 17911 ft 368 kts 319°
2026-05-08 08:54 43.77165 6.94320 18570 ft 372 kts 318°
2026-05-08 08:55 43.79172 6.92019 19158 ft 376 kts 318°
2026-05-08 08:55 43.81195 6.89696 19760 ft 380 kts 318°
2026-05-08 08:55 43.83243 6.87342 20391 ft 384 kts 318°
2026-05-08 08:55 43.85304 6.84970 21026 ft 387 kts 318°
2026-05-08 08:56 43.87384 6.82575 21612 ft 391 kts 317°
2026-05-08 08:56 43.89490 6.80149 22196 ft 395 kts 317°
2026-05-08 08:56 43.91624 6.77720 22772 ft 399 kts 319°
2026-05-08 08:56 43.93960 6.75578 23321 ft 406 kts 329°
2026-05-08 08:57 43.96594 6.74064 23803 ft 414 kts 340°
2026-05-08 08:57 43.99365 6.73041 24241 ft 419 kts 343°
2026-05-08 08:57 44.02217 6.72113 24690 ft 422 kts 344°
2026-05-08 08:57 44.05088 6.71196 25138 ft 425 kts 344°
2026-05-08 08:58 44.07980 6.70267 25603 ft 427 kts 344°
2026-05-08 08:58 44.10889 6.69326 26026 ft 430 kts 343°
2026-05-08 08:58 44.13815 6.68373 26425 ft 434 kts 343°
2026-05-08 08:58 44.16763 6.67409 26824 ft 437 kts 343°
2026-05-08 08:59 44.19734 6.66437 27267 ft 439 kts 343°
2026-05-08 08:59 44.22724 6.65456 27648 ft 443 kts 343°
2026-05-08 08:59 44.25691 6.64482 28108 ft 444 kts 343°
2026-05-08 08:59 44.28703 6.63492 28517 ft 446 kts 343°
2026-05-08 09:00 44.31734 6.62494 28909 ft 448 kts 343°
2026-05-08 09:00 44.34793 6.61485 29210 ft 452 kts 343°
2026-05-08 09:00 44.37869 6.60470 29511 ft 455 kts 343°
2026-05-08 09:00 44.40962 6.59447 29870 ft 458 kts 343°
2026-05-08 09:01 44.44070 6.58420 30217 ft 460 kts 343°
2026-05-08 09:01 44.47172 6.57228 30501 ft 460 kts 336°
2026-05-08 09:01 44.50047 6.55366 30893 ft 453 kts 326°
2026-05-08 09:01 44.52729 6.53091 31376 ft 448 kts 323°
2026-05-08 09:02 44.55330 6.50699 31825 ft 446 kts 322°
2026-05-08 09:02 44.57898 6.48242 31990 ft 447 kts 321°
2026-05-08 09:02 44.62959 6.43324 31990 ft 442 kts 321°
2026-05-08 09:03 44.65470 6.40896 31745 ft 433 kts 321°
2026-05-08 09:03 44.67938 6.38523 31499 ft 425 kts 321°
2026-05-08 09:03 44.70365 6.36199 31224 ft 420 kts 321°
2026-05-08 09:03 44.72792 6.33874 31042 ft 426 kts 321°
2026-05-08 09:04 44.77795 6.29069 31013 ft 445 kts 321°
2026-05-08 09:04 44.82953 6.24123 31018 ft 448 kts 321°
2026-05-08 09:05 44.88070 6.19219 31013 ft 447 kts 321°
2026-05-08 09:05 44.93222 6.14272 31018 ft 448 kts 321°
2026-05-08 09:06 44.98362 6.09312 31001 ft 446 kts 321°
2026-05-08 09:06 45.03488 6.04349 31002 ft 445 kts 321°
2026-05-08 09:07 45.08579 5.99402 30998 ft 447 kts 321°
2026-05-08 09:07 45.13720 5.94411 30997 ft 447 kts 321°
2026-05-08 09:08 45.18861 5.89409 30999 ft 448 kts 321°
2026-05-08 09:08 45.23128 5.85248 31003 ft 448 kts 321°
2026-05-08 09:09 45.29101 5.79409 31013 ft 448 kts 320°
2026-05-08 09:09 45.33380 5.75217 31010 ft 448 kts 320°
2026-05-08 09:10 45.38530 5.70159 31008 ft 448 kts 320°
2026-05-08 09:10 45.43641 5.65130 31011 ft 448 kts 320°
2026-05-08 09:11 45.48765 5.60076 31011 ft 448 kts 320°
2026-05-08 09:11 45.53888 5.55013 31015 ft 448 kts 321°
2026-05-08 09:12 45.59421 5.50783 31011 ft 453 kts 330°
2026-05-08 09:12 45.65183 5.47050 31022 ft 454 kts 332°
2026-05-08 09:13 45.70921 5.43453 31009 ft 447 kts 333°
2026-05-08 09:13 45.76577 5.39895 31012 ft 446 kts 333°
2026-05-08 09:14 45.82268 5.36285 31014 ft 446 kts 332°
2026-05-08 09:14 45.87945 5.32667 31013 ft 446 kts 332°
2026-05-08 09:15 45.93591 5.29059 31012 ft 446 kts 332°
2026-05-08 09:15 45.99260 5.25429 31010 ft 446 kts 332°
2026-05-08 09:16 46.04925 5.21794 31006 ft 445 kts 332°
2026-05-08 09:16 46.10546 5.18180 31004 ft 445 kts 332°
2026-05-08 09:17 46.16208 5.14532 31004 ft 443 kts 333°
2026-05-08 09:17 46.21864 5.11009 31003 ft 444 kts 338°
2026-05-08 09:18 46.27971 5.09400 31014 ft 450 kts 354°
2026-05-08 09:18 46.34260 5.09193 31010 ft 452 kts 357°
2026-05-08 09:19 46.40553 5.09264 31010 ft 452 kts 358°
2026-05-08 09:19 46.46859 5.09349 31017 ft 452 kts 357°
2026-05-08 09:20 46.53104 5.09397 31009 ft 451 kts 357°
2026-05-08 09:20 46.59389 5.09425 31011 ft 451 kts 357°
2026-05-08 09:21 46.65677 5.09449 31012 ft 451 kts 357°
2026-05-08 09:23 46.87633 5.09541 31042 ft 451 kts 357°
2026-05-08 09:23 46.93876 5.09569 31043 ft 451 kts 357°
2026-05-08 09:24 47.00180 5.09597 31042 ft 451 kts 357°
2026-05-08 09:24 47.06467 5.09625 31046 ft 451 kts 357°
2026-05-08 09:25 47.12727 5.09653 31048 ft 452 kts 357°
2026-05-08 09:25 47.19037 5.09681 31048 ft 453 kts 357°
2026-05-08 09:26 47.25343 5.09709 31046 ft 453 kts 357°
2026-05-08 09:26 47.31656 5.09738 31047 ft 453 kts 357°
2026-05-08 09:27 47.37938 5.09766 31046 ft 453 kts 357°
2026-05-08 09:27 47.44263 5.09795 31047 ft 453 kts 357°
2026-05-08 09:28 47.50532 5.09823 31051 ft 453 kts 358°
2026-05-08 09:28 47.56775 5.09320 30772 ft 438 kts 344°
2026-05-08 09:28 47.59630 5.07927 30512 ft 424 kts 331°
2026-05-08 09:29 47.62119 5.05736 30269 ft 410 kts 320°
2026-05-08 09:29 47.64329 5.03125 30013 ft 404 kts 316°
2026-05-08 09:29 47.66466 5.00444 29708 ft 400 kts 316°
2026-05-08 09:29 47.68575 4.97776 29236 ft 397 kts 316°
2026-05-08 09:30 47.70646 4.95157 28815 ft 393 kts 316°
2026-05-08 09:30 47.72704 4.92558 28600 ft 384 kts 316°
2026-05-08 09:30 47.74725 4.90004 28242 ft 379 kts 316°
2026-05-08 09:30 47.76740 4.87447 27511 ft 384 kts 316°
2026-05-08 09:31 47.78796 4.84833 26754 ft 390 kts 316°
2026-05-08 09:31 47.80841 4.82238 26485 ft 383 kts 316°
2026-05-08 09:31 47.82848 4.79691 26223 ft 376 kts 316°
2026-05-08 09:31 47.84818 4.77187 26015 ft 367 kts 316°
2026-05-08 09:32 47.86730 4.74756 25982 ft 354 kts 316°
2026-05-08 09:32 47.88567 4.72420 25983 ft 340 kts 316°
2026-05-08 09:32 47.90335 4.70166 25985 ft 329 kts 315°
2026-05-08 09:32 47.92063 4.67958 26001 ft 327 kts 315°
2026-05-08 09:33 47.93789 4.65747 26000 ft 327 kts 315°
2026-05-08 09:33 47.95517 4.63533 25988 ft 328 kts 315°
2026-05-08 09:33 47.97247 4.61315 26001 ft 328 kts 315°
2026-05-08 09:33 47.98958 4.59123 26011 ft 328 kts 315°
2026-05-08 09:34 48.00695 4.56894 25798 ft 329 kts 315°
2026-05-08 09:34 48.02433 4.54663 25425 ft 328 kts 315°
2026-05-08 09:34 48.04159 4.52446 25057 ft 327 kts 315°
2026-05-08 09:34 48.05881 4.50232 24682 ft 326 kts 315°
2026-05-08 09:35 48.07597 4.48024 24336 ft 325 kts 315°
2026-05-08 09:35 48.09307 4.45820 23980 ft 324 kts 315°
2026-05-08 09:35 48.11018 4.43615 23625 ft 323 kts 315°
2026-05-08 09:35 48.12694 4.41451 23224 ft 322 kts 315°
2026-05-08 09:36 48.14391 4.39259 22828 ft 321 kts 315°
2026-05-08 09:36 48.16081 4.37074 22423 ft 320 kts 315°
2026-05-08 09:36 48.17767 4.34891 22014 ft 319 kts 315°
2026-05-08 09:36 48.19445 4.32718 21625 ft 318 kts 315°
2026-05-08 09:37 48.21115 4.30553 21231 ft 317 kts 315°
2026-05-08 09:37 48.22778 4.28395 20854 ft 315 kts 315°
2026-05-08 09:37 48.24433 4.26246 20475 ft 314 kts 315°
2026-05-08 09:37 48.26043 4.24049 20099 ft 311 kts 310°
2026-05-08 09:38 48.27476 4.21642 19730 ft 308 kts 307°
2026-05-08 09:38 48.28845 4.19175 19358 ft 307 kts 306°
2026-05-08 09:38 48.30196 4.16706 19002 ft 305 kts 306°
2026-05-08 09:38 48.31527 4.14271 18645 ft 304 kts 306°
2026-05-08 09:39 48.32869 4.11818 18281 ft 303 kts 306°
2026-05-08 09:39 48.34200 4.09385 18038 ft 296 kts 306°
2026-05-08 09:39 48.35486 4.07039 18014 ft 287 kts 306°
2026-05-08 09:39 48.36755 4.04719 18032 ft 287 kts 306°
2026-05-08 09:40 48.38028 4.02386 18021 ft 289 kts 306°
2026-05-08 09:40 48.39303 4.00051 18021 ft 289 kts 306°
2026-05-08 09:40 48.40579 3.97711 18020 ft 289 kts 306°
2026-05-08 09:40 48.41843 3.95393 18018 ft 289 kts 306°
2026-05-08 09:41 48.43122 3.93046 18018 ft 289 kts 306°
2026-05-08 09:41 48.44398 3.90702 18017 ft 289 kts 306°
2026-05-08 09:41 48.45673 3.88359 18016 ft 289 kts 306°
2026-05-08 09:41 48.46948 3.86013 18014 ft 289 kts 306°
2026-05-08 09:42 48.48225 3.83660 18015 ft 289 kts 306°
2026-05-08 09:42 48.49497 3.81315 18014 ft 289 kts 306°
2026-05-08 09:42 48.50771 3.78965 18019 ft 288 kts 306°
2026-05-08 09:42 48.52031 3.76641 17814 ft 285 kts 306°
2026-05-08 09:43 48.53266 3.74354 17458 ft 285 kts 305°
2026-05-08 09:43 48.54425 3.71943 17090 ft 283 kts 301°
2026-05-08 09:43 48.55506 3.69476 16728 ft 281 kts 300°
2026-05-08 09:43 48.56570 3.67003 16376 ft 280 kts 300°
2026-05-08 09:44 48.57625 3.64543 16036 ft 278 kts 300°
2026-05-08 09:44 48.58674 3.62097 15694 ft 277 kts 300°
2026-05-08 09:44 48.59715 3.59667 15376 ft 275 kts 300°
2026-05-08 09:44 48.60752 3.57241 15074 ft 275 kts 300°
2026-05-08 09:45 48.61493 3.54635 14792 ft 268 kts 276°
2026-05-08 09:45 48.61365 3.51897 14498 ft 260 kts 248°
2026-05-08 09:45 48.60398 3.49645 14204 ft 257 kts 220°
2026-05-08 09:45 48.58834 3.48412 13904 ft 257 kts 192°
2026-05-08 09:46 48.57056 3.48498 13586 ft 260 kts 164°
2026-05-08 09:46 48.55501 3.49895 13267 ft 265 kts 135°
2026-05-08 09:46 48.54516 3.52215 12949 ft 269 kts 115°
2026-05-08 09:46 48.53781 3.54824 12657 ft 270 kts 119°
2026-05-08 09:47 48.52855 3.57276 12353 ft 268 kts 123°
2026-05-08 09:47 48.51873 3.59664 12035 ft 267 kts 124°
2026-05-08 09:47 48.50856 3.62002 11731 ft 266 kts 127°
2026-05-08 09:47 48.49776 3.64266 11427 ft 264 kts 128°
2026-05-08 09:48 48.48914 3.66697 11113 ft 265 kts 105°
2026-05-08 09:48 48.48870 3.69458 10753 ft 267 kts 76°
2026-05-08 09:48 48.49688 3.71906 10389 ft 266 kts 47°
2026-05-08 09:48 48.51179 3.73490 10031 ft 264 kts 18°
2026-05-08 09:49 48.52972 3.73801 9642 ft 260 kts 349°
2026-05-08 09:49 48.54614 3.72791 9252 ft 255 kts 321°
2026-05-08 09:49 48.55903 3.70965 8852 ft 254 kts 307°
2026-05-08 09:49 48.56878 3.68745 8469 ft 252 kts 297°
2026-05-08 09:50 48.57694 3.66402 8096 ft 252 kts 295°
2026-05-08 09:50 48.58463 3.64024 7715 ft 252 kts 294°
2026-05-08 09:50 48.59207 3.61625 7339 ft 252 kts 293°
2026-05-08 09:50 48.59923 3.59259 7062 ft 248 kts 293°
2026-05-08 09:51 48.60618 3.56934 7002 ft 239 kts 293°
2026-05-08 09:51 48.61278 3.54716 7008 ft 223 kts 293°
2026-05-08 09:51 48.61898 3.52618 7035 ft 216 kts 293°
2026-05-08 09:51 48.62514 3.50526 7005 ft 218 kts 292°
2026-05-08 09:52 48.63131 3.48423 7002 ft 218 kts 292°
2026-05-08 09:52 48.63739 3.46347 7009 ft 219 kts 293°
2026-05-08 09:52 48.64355 3.44243 7017 ft 218 kts 293°
2026-05-08 09:52 48.64969 3.42148 7017 ft 218 kts 293°
2026-05-08 09:53 48.65584 3.40053 7007 ft 218 kts 293°
2026-05-08 09:53 48.66199 3.37955 7006 ft 218 kts 293°
2026-05-08 09:53 48.66814 3.35853 7009 ft 218 kts 293°
2026-05-08 09:53 48.67427 3.33755 7009 ft 218 kts 293°
2026-05-08 09:54 48.68040 3.31654 7012 ft 218 kts 293°
2026-05-08 09:54 48.68651 3.29556 7011 ft 218 kts 293°
2026-05-08 09:54 48.69262 3.27458 7012 ft 218 kts 293°
2026-05-08 09:54 48.69873 3.25359 7012 ft 218 kts 293°
2026-05-08 09:55 48.70517 3.23141 7034 ft 241 kts 293°
2026-05-08 09:55 48.71203 3.20778 7014 ft 248 kts 293°
2026-05-08 09:55 48.71892 3.18402 7013 ft 249 kts 293°
2026-05-08 09:55 48.72609 3.15926 6992 ft 267 kts 293°
2026-05-08 09:56 48.73369 3.13304 7005 ft 274 kts 293°
2026-05-08 09:56 48.73930 3.11367 7022 ft 274 kts 293°